Point Lay, AK

8:28 PM AKST on February 23, 2017 (GMT -0900)
Point Lay

Weather History for PPIZ - June, 2013

Change the Weather History Date:

Monday, June 17, 2013

  Actual Average Record
Temperature  
Mean Temperature 60 °F -  
Max Temperature 74 °F 44 °F 74 °F (2013)
Min Temperature 45 °F 33 °F 30 °F (2012)
Degree Days  
Heating Degree Days 6    
Growing Degree Days 10 (Base 50)    
Moisture  
Dew Point 51 °F    
Average Humidity 74    
Maximum Humidity 93    
Minimum Humidity 48    
Precipitation  
Precipitation 0.00 in - - ()
Sea Level Pressure  
Sea Level Pressure 30.32 in    
Wind  
Wind Speed 10 mph (NE)    
Max Wind Speed 13 mph    
Max Gust Speed -    
Visibility 9 miles    
Events      
Averages and records for this station are not official NWS values.
T = Trace of Precipitation, MM = Missing Value Source: NWS Daily Summary

Daily Weather History Graph

Daily Weather History Graph

Search for Another Location

Airport or City:

Trip Planner

Search our weather history database for the weather conditions in past years. The results will help you decide how hot, cold, wet, or windy it might be!

Date:

Astronomy

Dec. 31, 1969 Rise Set
Actual Time Sun does not rise Sun does not rise
Civil Twilight Sun does not rise Sun does not rise
Nautical Twilight Sun does not rise Sun does not rise
Astronomical Twilight Sun does not rise Sun does not rise
Moon 5:20 PM AKDT (6/17) 2:24 AM AKDT (6/17)
Length of Visible Light 24h 00m
Length of Day
24h 00m
First Quarter, 62% of the Moon is Illuminated
Jun 17
First Quarter
Jun 23
Full
Jun 29
Last Quarter
Jul 7
New
Jul 15
First Quarter

Hourly Weather History & Observations

Time (AKDT) Temp. Windchill Dew Point Humidity Pressure Visibility Wind Dir Wind Speed Gust Speed Precip Events Conditions
12:56 AM 46.9 °F - 43.9 °F 89% 30.40 in 10.0 mi NNE 10.4 mph - N/A   Clear
1:56 AM 45.9 °F 41.7 °F 43.9 °F 93% 30.40 in 10.0 mi NNE 8.1 mph - N/A   Clear
2:36 AM 46.4 °F 41.9 °F 44.6 °F 93% 30.39 in 1.5 mi NNE 9.2 mph - N/A   Clear
2:40 AM 46.4 °F 41.9 °F 44.6 °F 93% 30.39 in 3.0 mi NNE 9.2 mph - N/A   Clear
2:56 AM 45.9 °F 41.7 °F 43.9 °F 93% 30.39 in 10.0 mi NNE 8.1 mph - N/A   Clear
3:56 AM 45.9 °F 41.2 °F 43.9 °F 93% 30.39 in 10.0 mi NE 9.2 mph - N/A   Clear
4:56 AM 45.9 °F 41.2 °F 43.9 °F 93% 30.38 in 10.0 mi NE 9.2 mph - N/A   Clear
5:56 AM 48.9 °F - 45.9 °F 89% 30.37 in 10.0 mi NE 9.2 mph - N/A   Clear
6:56 AM 50.9 °F - 46.9 °F 86% 30.36 in 10.0 mi NE 6.9 mph - N/A   Clear
7:56 AM 52.9 °F - 47.8 °F 83% 30.35 in 10.0 mi NE 8.1 mph - N/A   Clear
8:56 AM 56.8 °F - 50.0 °F 78% 30.35 in 10.0 mi NE 9.2 mph - N/A   Clear
9:56 AM 59.9 °F - 52.0 °F 75% 30.34 in 10.0 mi ENE 9.2 mph - N/A   Clear
10:56 AM 63.0 °F - 52.9 °F 70% 30.33 in 10.0 mi ENE 9.2 mph - N/A   Clear
11:56 AM 65.8 °F - 54.0 °F 65% 30.33 in 10.0 mi ENE 9.2 mph - N/A   Clear
12:56 PM 59.0 °F - 52.0 °F 78% 30.32 in 10.0 mi North 9.2 mph - N/A   Clear
1:56 PM 70.9 °F - 54.0 °F 55% 30.31 in 10.0 mi ENE 12.7 mph - N/A   Clear
2:56 PM 64.9 °F - 54.9 °F 70% 30.30 in 10.0 mi North 11.5 mph - N/A   Clear
3:56 PM 72.9 °F - 52.9 °F 49% 30.29 in 10.0 mi ENE 10.4 mph - N/A   Clear
4:56 PM 73.9 °F - 55.9 °F 53% 30.27 in 10.0 mi NNE 9.2 mph - N/A   Clear
5:56 PM 72.9 °F - 54.9 °F 53% 30.26 in 10.0 mi ENE 10.4 mph - N/A   Clear
6:56 PM 74.8 °F - 54.0 °F 48% 30.25 in 10.0 mi ENE 12.7 mph - N/A   Clear
7:56 PM 74.8 °F - 54.0 °F 48% 30.24 in 10.0 mi ENE 11.5 mph - N/A   Clear
8:56 PM 64.9 °F - 56.8 °F 75% 30.24 in 10.0 mi North 12.7 mph - N/A   Clear
9:56 PM 63.9 °F - 55.9 °F 75% 30.22 in 10.0 mi NNE 11.5 mph - N/A   Clear
10:56 PM 66.9 °F - 56.8 °F 70% 30.22 in 10.0 mi NNE 10.4 mph - N/A   Clear
11:56 PM 66.9 °F - 55.9 °F 68% 30.22 in 10.0 mi NE 10.4 mph - N/A   Clear